| time (UTC) | temp C | wind direction | speed KPH | gust KPH | rain 1hr cm | rain 24hr cm | rain mn cm | humidity % | barometer mb |
| 20260503045007 | 11 | 5 | 0.0 | 0.0 | 0.00 | 0.05 | 0.00 | 88 | 1020.4 |
| 20260503044507 | 11 | 5 | 0.0 | 0.0 | 0.00 | 0.05 | 0.00 | 88 | 1020.5 |
| 20260503044007 | 11 | 5 | 0.0 | 0.0 | 0.00 | 0.05 | 0.00 | 88 | 1020.4 |
| 20260503043506 | 11 | 5 | 0.0 | 0.0 | 0.00 | 0.05 | 0.00 | 88 | 1020.3 |
| 20260503042506 | 11 | 5 | 0.0 | 0.0 | 0.00 | 0.05 | 0.00 | 88 | 1020.5 |
| 20260503042008 | 11 | 5 | 0.0 | 0.0 | 0.00 | 0.05 | 0.00 | 88 | 1020.4 |
| 20260503041507 | 11 | 5 | 0.0 | 0.0 | 0.00 | 0.05 | 0.00 | 88 | 1020.3 |
| 20260503041007 | 11 | 5 | 0.0 | 0.0 | 0.00 | 0.05 | 0.00 | 88 | 1020.3 |
| 20260503040506 | 11 | 5 | 0.0 | 0.0 | 0.00 | 0.05 | 0.00 | 88 | 1020.3 |
| 20260503035007 | 11 | 5 | 0.0 | 0.0 | 0.00 | 0.15 | 0.00 | 87 | 1020.3 |
| 20260503034507 | 11 | 5 | 0.0 | 0.0 | 0.00 | 0.15 | 0.00 | 87 | 1020.3 |
| 20260503034007 | 11 | 5 | 0.0 | 0.0 | 0.00 | 0.15 | 0.00 | 86 | 1020.2 |
| 20260503033506 | 12 | 5 | 0.0 | 0.0 | 0.00 | 0.15 | 0.00 | 86 | 1020.3 |
| 20260503033008 | 12 | 5 | 0.0 | 0.0 | 0.00 | 0.15 | 0.00 | 85 | 1020.2 |
| 20260503032506 | 12 | 5 | 0.0 | 0.0 | 0.00 | 0.15 | 0.00 | 85 | 1020.3 |
| 20260503032007 | 12 | 5 | 0.0 | 0.0 | 0.00 | 0.15 | 0.00 | 84 | 1020.2 |
| 20260503031506 | 12 | 5 | 0.0 | 0.0 | 0.00 | 0.15 | 0.00 | 84 | 1020.3 |
| 20260503031007 | 12 | 5 | 0.0 | 0.0 | 0.00 | 0.15 | 0.00 | 84 | 1020.3 |
| 20260503030506 | 12 | 5 | 0.0 | 0.0 | 0.00 | 0.15 | 0.00 | 84 | 1020.3 |
| 20260503025506 | 13 | 5 | 0.0 | 0.0 | 0.00 | 0.20 | 0.00 | 83 | 1020.0 |
| 20260503025011 | 13 | 5 | 0.0 | 0.0 | 0.00 | 0.20 | 0.00 | 83 | 1020.0 |
| 20260503024506 | 13 | 5 | 0.0 | 0.0 | 0.00 | 0.20 | 0.00 | 82 | 1019.9 |
| 20260503024007 | 13 | 5 | 0.0 | 0.0 | 0.00 | 0.20 | 0.00 | 82 | 1019.9 |
| 20260503023506 | 13 | 5 | 0.0 | 0.0 | 0.00 | 0.20 | 0.00 | 82 | 1019.9 |
| 20260503023007 | 13 | 5 | 0.0 | 0.0 | 0.00 | 0.20 | 0.00 | 81 | 1019.8 |
| 20260503022506 | 13 | 5 | 0.0 | 0.0 | 0.00 | 0.20 | 0.00 | 81 | 1019.7 |
| 20260503022007 | 13 | 5 | 0.0 | 0.0 | 0.00 | 0.20 | 0.00 | 80 | 1019.6 |
| 20260503021506 | 14 | 5 | 0.0 | 0.0 | 0.00 | 0.20 | 0.00 | 79 | 1019.6 |
| 20260503021007 | 14 | 5 | 0.0 | 0.0 | 0.00 | 0.20 | 0.00 | 79 | 1019.5 |
| 20260503020507 | 14 | 5 | 0.0 | 0.0 | 0.00 | 0.20 | 0.00 | 79 | 1019.5 |
| 20260503020008 | 15 | 5 | 0.0 | 0.0 | 0.00 | 0.23 | 0.00 | 78 | 1019.3 |
| 20260503015505 | 15 | 5 | 0.0 | 0.0 | 0.00 | 0.23 | 0.00 | 78 | 1019.3 |
| 20260503014507 | 15 | 5 | 0.0 | 0.0 | 0.00 | 0.23 | 0.00 | 76 | 1019.3 |
| 20260503014007 | 15 | 5 | 0.0 | 0.0 | 0.00 | 0.23 | 0.00 | 76 | 1019.1 |
| 20260503013506 | 15 | 5 | 0.0 | 0.0 | 0.00 | 0.23 | 0.00 | 75 | 1019.0 |
| 20260503013007 | 16 | 5 | 0.0 | 0.0 | 0.00 | 0.23 | 0.00 | 75 | 1019.1 |
| 20260503012506 | 16 | 5 | 0.0 | 0.0 | 0.00 | 0.23 | 0.00 | 74 | 1019.0 |
| 20260503011507 | 16 | 5 | 0.0 | 0.0 | 0.00 | 0.23 | 0.00 | 72 | 1019.0 |
| 20260503011006 | 16 | 5 | 0.0 | 0.0 | 0.00 | 0.23 | 0.00 | 72 | 1018.9 |
| 20260503010505 | 17 | 5 | 0.0 | 0.0 | 0.00 | 0.23 | 0.00 | 70 | 1018.9 |
| 20260503010006 | 17 | 5 | 0.0 | 0.0 | 0.00 | 0.30 | 0.00 | 69 | 1018.8 |
| 20260503005506 | 17 | 5 | 0.0 | 0.0 | 0.00 | 0.30 | 0.00 | 69 | 1018.7 |
| 20260503005007 | 17 | 5 | 0.0 | 0.0 | 0.00 | 0.30 | 0.00 | 66 | 1018.6 |
| 20260503004507 | 17 | 5 | 0.0 | 0.0 | 0.00 | 0.30 | 0.00 | 66 | 1018.7 |
| 20260503003507 | 18 | 5 | 0.0 | 0.0 | 0.00 | 0.30 | 0.00 | 67 | 1018.6 |
| 20260503003008 | 18 | 5 | 0.0 | 0.0 | 0.00 | 0.30 | 0.00 | 65 | 1018.5 |
| 20260503002506 | 18 | 5 | 0.0 | 0.0 | 0.00 | 0.30 | 0.00 | 65 | 1018.6 |
| 20260503002008 | 18 | 5 | 0.0 | 0.0 | 0.00 | 0.30 | 0.00 | 63 | 1018.7 |
| 20260503001507 | 19 | 5 | 0.0 | 0.0 | 0.00 | 0.30 | 0.00 | 63 | 1018.7 |
| 20260503001008 | 19 | 5 | 0.0 | 0.0 | 0.00 | 0.30 | 0.00 | 59 | 1018.7 |
| 20260503000507 | 19 | 5 | 0.0 | 0.0 | 0.00 | 0.30 | 0.00 | 55 | 1018.6 |
| 20260503000010 | 19 | 5 | 0.0 | 0.0 | 0.00 | 0.30 | 0.00 | 58 | 1018.6 |
| 20260502235006 | 20 | 5 | 0.0 | 0.0 | 0.00 | 0.69 | 0.00 | 54 | 1018.5 |
| 20260502234506 | 20 | 315 | 0.0 | 0.0 | 0.00 | 0.69 | 0.00 | 53 | 1018.4 |
| 20260502234008 | 20 | 315 | 0.0 | 0.0 | 0.00 | 0.69 | 0.00 | 56 | 1018.5 |
| 20260502233506 | 20 | 315 | 0.0 | 0.0 | 0.00 | 0.69 | 0.00 | 53 | 1018.5 |
| 20260502233009 | 20 | 315 | 0.0 | 0.0 | 0.00 | 0.69 | 0.00 | 53 | 1018.4 |
| 20260502232505 | 20 | 349 | 0.0 | 0.0 | 0.00 | 0.69 | 0.00 | 51 | 1018.3 |
| 20260502232007 | 20 | 351 | 1.6 | 3.2 | 0.00 | 0.69 | 0.00 | 50 | 1018.2 |
| 20260502231507 | 20 | 25 | 1.6 | 4.8 | 0.00 | 0.69 | 0.00 | 50 | 1018.2 |
| 20260502231006 | 20 | 28 | 0.0 | 4.8 | 0.00 | 0.69 | 0.00 | 49 | 1018.3 |
| 20260502230009 | 21 | 17 | 1.6 | 4.8 | 0.00 | 0.69 | 0.00 | 49 | 1018.1 |
| 20260502225506 | 21 | 360 | 3.2 | 6.4 | 0.00 | 0.91 | 0.00 | 49 | 1018.1 |
| 20260502225007 | 21 | 24 | 1.6 | 6.4 | 0.00 | 0.91 | 0.00 | 47 | 1018.1 |
| 20260502224507 | 21 | 21 | 0.0 | 6.4 | 0.00 | 0.91 | 0.00 | 47 | 1018.0 |
| 20260502223505 | 21 | 355 | 1.6 | 4.8 | 0.00 | 0.91 | 0.00 | 49 | 1017.9 |
| 20260502222506 | 21 | 30 | 3.2 | 8.0 | 0.00 | 0.91 | 0.00 | 46 | 1018.0 |
| 20260502222007 | 21 | 19 | 3.2 | 6.4 | 0.00 | 0.91 | 0.00 | 46 | 1018.0 |
| 20260502221507 | 21 | 15 | 1.6 | 6.4 | 0.00 | 0.91 | 0.00 | 46 | 1017.9 |
| 20260502221008 | 21 | 26 | 1.6 | 6.4 | 0.00 | 0.91 | 0.00 | 46 | 1017.9 |
| 20260502220505 | 21 | 16 | 1.6 | 6.4 | 0.00 | 0.91 | 0.00 | 45 | 1017.9 |
| 20260502220009 | 21 | 360 | 1.6 | 4.8 | 0.00 | 0.91 | 0.00 | 45 | 1017.9 |
| 20260502215507 | 21 | 5 | 1.6 | 4.8 | 0.00 | 0.94 | 0.00 | 44 | 1017.9 |
| 20260502215007 | 22 | 335 | 1.6 | 4.8 | 0.00 | 0.94 | 0.00 | 46 | 1017.8 |
| 20260502214506 | 22 | 5 | 1.6 | 4.8 | 0.00 | 0.94 | 0.00 | 47 | 1017.9 |
| 20260502213506 | 22 | 84 | 1.6 | 6.4 | 0.00 | 0.94 | 0.00 | 46 | 1017.7 |
| 20260502213008 | 22 | 347 | 1.6 | 9.7 | 0.00 | 0.94 | 0.00 | 45 | 1017.9 |
| 20260502212508 | 22 | 16 | 1.6 | 9.7 | 0.00 | 0.94 | 0.00 | 46 | 1017.9 |
| 20260502212007 | 22 | 11 | 1.6 | 4.8 | 0.00 | 0.94 | 0.00 | 44 | 1017.8 |
| 20260502211507 | 22 | 360 | 1.6 | 4.8 | 0.00 | 0.94 | 0.00 | 44 | 1017.9 |
| 20260502211007 | 22 | 13 | 1.6 | 4.8 | 0.00 | 0.94 | 0.00 | 46 | 1018.0 |
| 20260502210505 | 22 | 30 | 1.6 | 4.8 | 0.00 | 0.94 | 0.00 | 45 | 1018.0 |
| 20260502210008 | 22 | 12 | 1.6 | 6.4 | 0.00 | 1.02 | 0.00 | 44 | 1018.1 |
| 20260502205006 | 22 | 5 | 1.6 | 6.4 | 0.00 | 1.02 | 0.00 | 45 | 1018.3 |
| 20260502204006 | 23 | 336 | 3.2 | 6.4 | 0.00 | 1.02 | 0.00 | 43 | 1018.4 |
| 20260502203504 | 23 | 23 | 3.2 | 8.0 | 0.00 | 1.02 | 0.00 | 46 | 1018.5 |
| 20260502203009 | 23 | 26 | 3.2 | 8.0 | 0.00 | 1.02 | 0.00 | 44 | 1018.5 |
| 20260502202506 | 23 | 279 | 1.6 | 6.4 | 0.00 | 1.02 | 0.00 | 44 | 1018.5 |
| 20260502202008 | 23 | 112 | 1.6 | 4.8 | 0.00 | 1.02 | 0.00 | 46 | 1018.5 |
| 20260502201506 | 23 | 82 | 1.6 | 6.4 | 0.00 | 1.02 | 0.00 | 45 | 1018.6 |
| 20260502201006 | 23 | 13 | 1.6 | 6.4 | 0.00 | 1.02 | 0.00 | 47 | 1018.8 |
| 20260502200505 | 23 | 39 | 3.2 | 6.4 | 0.00 | 1.02 | 0.00 | 45 | 1018.6 |
| 20260502200010 | 23 | 54 | 3.2 | 8.0 | 0.00 | 1.02 | 0.00 | 46 | 1018.7 |
| 20260502195505 | 23 | 12 | 1.6 | 8.0 | 0.00 | 1.22 | 0.00 | 46 | 1018.7 |
| 20260502195010 | 23 | 307 | 1.6 | 4.8 | 0.00 | 1.22 | 0.00 | 47 | 1018.7 |
| 20260502194007 | 23 | 57 | 3.2 | 8.0 | 0.00 | 1.22 | 0.00 | 46 | 1019.0 |
| 20260502193507 | 23 | 60 | 3.2 | 8.0 | 0.00 | 1.22 | 0.00 | 47 | 1019.0 |
| 20260502193007 | 23 | 9 | 3.2 | 6.4 | 0.00 | 1.22 | 0.00 | 50 | 1019.2 |
| 20260502191508 | 23 | 23 | 3.2 | 9.7 | 0.00 | 1.22 | 0.00 | 46 | 1019.3 |
| 20260502191006 | 22 | 5 | 3.2 | 9.7 | 0.00 | 1.22 | 0.00 | 49 | 1019.4 |
| 20260502190508 | 22 | 355 | 3.2 | 9.7 | 0.00 | 1.22 | 0.00 | 47 | 1019.5 |
| 20260502185507 | 22 | 84 | 1.6 | 8.0 | 0.00 | 1.32 | 0.00 | 48 | 1019.3 |
| 20260502185008 | 22 | 46 | 1.6 | 8.0 | 0.00 | 1.32 | 0.00 | 48 | 1019.4 |
| 20260502184507 | 22 | 67 | 1.6 | 6.4 | 0.00 | 1.32 | 0.00 | 47 | 1019.5 |
| 20260502184007 | 22 | 30 | 3.2 | 9.7 | 0.00 | 1.32 | 0.00 | 50 | 1019.6 |
| 20260502183505 | 22 | 66 | 3.2 | 9.7 | 0.00 | 1.32 | 0.00 | 46 | 1019.6 |
| 20260502183008 | 22 | 11 | 3.2 | 6.4 | 0.00 | 1.32 | 0.00 | 52 | 1019.6 |
| 20260502182507 | 22 | 25 | 3.2 | 6.4 | 0.00 | 1.32 | 0.00 | 48 | 1019.6 |
| 20260502182007 | 22 | 123 | 3.2 | 6.4 | 0.00 | 1.32 | 0.00 | 51 | 1019.7 |
| 20260502181507 | 22 | 327 | 3.2 | 4.8 | 0.00 | 1.32 | 0.00 | 51 | 1019.7 |
| 20260502181008 | 22 | 45 | 3.2 | 6.4 | 0.00 | 1.32 | 0.00 | 48 | 1019.8 |
| 20260502180507 | 22 | 38 | 3.2 | 6.4 | 0.00 | 1.32 | 0.00 | 50 | 1019.9 |
| 20260502170505 | 20 | 355 | 1.6 | 4.8 | 0.00 | 1.40 | 0.00 | 59 | 1020.2 |
| 20260502164009 | 20 | 19 | 1.6 | 4.8 | 0.00 | 1.50 | 0.00 | 62 | 1020.5 |
| 20260502163010 | 20 | 26 | 1.6 | 6.4 | 0.00 | 1.50 | 0.00 | 63 | 1020.4 |
| 20260502162506 | 20 | 112 | 1.6 | 4.8 | 0.00 | 1.50 | 0.00 | 63 | 1020.6 |
| 20260502162006 | 19 | 17 | 1.6 | 6.4 | 0.00 | 1.50 | 0.00 | 68 | 1020.5 |
| 20260502161508 | 19 | 53 | 1.6 | 6.4 | 0.00 | 1.50 | 0.00 | 62 | 1020.5 |
| 20260502161007 | 19 | 53 | 1.6 | 8.0 | 0.00 | 1.50 | 0.00 | 65 | 1020.5 |
| 20260502160507 | 18 | 35 | 3.2 | 8.0 | 0.00 | 1.50 | 0.00 | 70 | 1020.4 |
| 20260502152008 | 16 | 30 | 1.6 | 8.0 | 0.00 | 1.65 | 0.00 | 80 | 1020.1 |
| 20260502151506 | 16 | 30 | 0.0 | 4.8 | 0.00 | 1.65 | 0.00 | 84 | 1020.0 |
| 20260502151007 | 16 | 22 | 0.0 | 0.0 | 0.00 | 1.65 | 0.00 | 88 | 1020.0 |
| 20260502150506 | 16 | 26 | 0.0 | 0.0 | 0.00 | 1.65 | 0.00 | 86 | 1019.9 |
| 20260502130505 | 11 | 26 | 1.6 | 4.8 | 0.00 | 2.21 | 0.00 | 96 | 1018.5 |
| 20260502123505 | 10 | 45 | 0.0 | 0.0 | 0.00 | 2.34 | 0.00 | 96 | 1017.9 |
| 20260502123008 | 10 | 45 | 0.0 | 0.0 | 0.00 | 2.34 | 0.00 | 96 | 1017.9 |
| 20260502122505 | 10 | 45 | 0.0 | 0.0 | 0.00 | 2.34 | 0.00 | 96 | 1017.9 |
| 20260502122005 | 10 | 45 | 0.0 | 0.0 | 0.00 | 2.34 | 0.00 | 96 | 1018.0 |
| 20260502121506 | 10 | 45 | 0.0 | 0.0 | 0.00 | 2.34 | 0.00 | 96 | 1018.0 |
| 20260502121005 | 10 | 45 | 0.0 | 0.0 | 0.00 | 2.34 | 0.00 | 96 | 1017.9 |
| 20260502120505 | 10 | 45 | 0.0 | 0.0 | 0.00 | 2.34 | 0.00 | 96 | 1017.8 |
| 20260502115505 | 10 | 45 | 0.0 | 0.0 | 0.00 | 2.34 | 0.00 | 96 | 1017.7 |
| 20260502115005 | 10 | 45 | 0.0 | 0.0 | 0.00 | 2.34 | 0.00 | 96 | 1017.6 |
| 20260502114505 | 10 | 45 | 0.0 | 0.0 | 0.00 | 2.34 | 0.00 | 96 | 1017.5 |
| 20260502114007 | 10 | 45 | 0.0 | 0.0 | 0.00 | 2.34 | 0.00 | 96 | 1017.5 |
| 20260502113504 | 10 | 45 | 0.0 | 0.0 | 0.00 | 2.34 | 0.00 | 96 | 1017.3 |
| 20260502113007 | 10 | 45 | 0.0 | 0.0 | 0.00 | 2.34 | 0.00 | 96 | 1017.3 |
| 20260502112505 | 10 | 45 | 0.0 | 0.0 | 0.00 | 2.34 | 0.00 | 96 | 1017.1 |
| 20260502112007 | 10 | 45 | 0.0 | 0.0 | 0.00 | 2.34 | 0.00 | 96 | 1017.1 |
| 20260502111506 | 10 | 45 | 0.0 | 0.0 | 0.00 | 2.34 | 0.00 | 96 | 1016.9 |
| 20260502111005 | 10 | 45 | 0.0 | 0.0 | 0.00 | 2.34 | 0.00 | 96 | 1016.8 |
| 20260502110505 | 10 | 45 | 0.0 | 0.0 | 0.00 | 2.34 | 0.00 | 96 | 1016.8 |
| 20260502105506 | 10 | 45 | 0.0 | 0.0 | 0.00 | 2.34 | 0.00 | 96 | 1016.8 |
| 20260502104506 | 10 | 46 | 0.0 | 0.0 | 0.00 | 2.34 | 0.00 | 96 | 1016.5 |
| 20260502104005 | 11 | 46 | 0.0 | 0.0 | 0.00 | 2.34 | 0.00 | 96 | 1016.5 |
| 20260502103505 | 11 | 45 | 0.0 | 0.0 | 0.00 | 2.34 | 0.00 | 96 | 1016.4 |
| 20260502103007 | 11 | 45 | 0.0 | 0.0 | 0.00 | 2.34 | 0.00 | 96 | 1016.6 |
| 20260502102506 | 11 | 46 | 0.0 | 0.0 | 0.00 | 2.34 | 0.00 | 96 | 1016.4 |
| 20260502102005 | 11 | 45 | 0.0 | 0.0 | 0.00 | 2.34 | 0.00 | 96 | 1016.3 |
| 20260502101505 | 11 | 46 | 0.0 | 0.0 | 0.00 | 2.34 | 0.00 | 96 | 1016.4 |
| 20260502101005 | 11 | 46 | 0.0 | 0.0 | 0.00 | 2.34 | 0.00 | 96 | 1016.4 |
| 20260502100504 | 11 | 46 | 0.0 | 0.0 | 0.00 | 2.34 | 0.00 | 96 | 1016.4 |
| 20260502091505 | 10 | 46 | 0.0 | 0.0 | 0.00 | 2.34 | 0.00 | 96 | 1016.3 |
| 20260502091006 | 10 | 46 | 0.0 | 0.0 | 0.00 | 2.34 | 0.00 | 96 | 1016.4 |
| 20260502090505 | 10 | 45 | 0.0 | 0.0 | 0.00 | 2.34 | 0.00 | 96 | 1016.5 |
| 20260502071505 | 10 | 45 | 0.0 | 0.0 | 0.00 | 2.34 | 0.00 | 96 | 1016.0 |
| 20260502071005 | 10 | 46 | 0.0 | 0.0 | 0.00 | 2.34 | 0.00 | 96 | 1016.1 |
| 20260502070505 | 10 | 45 | 0.0 | 0.0 | 0.00 | 2.34 | 0.00 | 96 | 1016.0 |
| 20260502070009 | 10 | 45 | 0.0 | 0.0 | 0.00 | 2.34 | 0.00 | 96 | 1016.0 |
| 20260502065506 | 10 | 45 | 0.0 | 0.0 | 0.00 | 2.34 | 0.00 | 96 | 1016.2 |
| 20260502065005 | 10 | 46 | 0.0 | 0.0 | 0.00 | 2.34 | 0.00 | 96 | 1016.3 |
| 20260502064005 | 10 | 45 | 0.0 | 0.0 | 0.00 | 2.34 | 0.00 | 96 | 1016.3 |
| 20260502062506 | 10 | 46 | 0.0 | 0.0 | 0.00 | 2.34 | 0.00 | 96 | 1016.3 |
| 20260502061505 | 10 | 46 | 0.0 | 0.0 | 0.00 | 2.34 | 0.00 | 96 | 1016.5 |
| 20260502061007 | 10 | 45 | 0.0 | 0.0 | 0.00 | 2.34 | 0.00 | 96 | 1016.5 |
| 20260502060505 | 10 | 46 | 0.0 | 0.0 | 0.00 | 2.34 | 0.00 | 96 | 1016.7 |
| 20260502055507 | 10 | 45 | 0.0 | 0.0 | 0.00 | 2.36 | 0.00 | 96 | 1016.8 |
| 20260502055006 | 10 | 46 | 0.0 | 0.0 | 0.00 | 2.36 | 0.00 | 96 | 1016.7 |
| 20260502054507 | 10 | 46 | 0.0 | 0.0 | 0.00 | 2.36 | 0.00 | 96 | 1016.7 |
| 20260502053506 | 10 | 45 | 0.0 | 0.0 | 0.03 | 2.36 | 0.00 | 96 | 1017.0 |
| 20260502053008 | 10 | 46 | 0.0 | 0.0 | 0.03 | 2.36 | 0.00 | 96 | 1017.0 |
| 20260502052507 | 10 | 45 | 0.0 | 0.0 | 0.03 | 2.36 | 0.00 | 96 | 1016.9 |
| 20260502052009 | 10 | 45 | 0.0 | 0.0 | 0.03 | 2.36 | 0.00 | 96 | 1016.7 |
| 20260502051510 | 10 | 46 | 0.0 | 0.0 | 0.03 | 2.36 | 0.00 | 96 | 1016.7 |
| 20260502051008 | 10 | 45 | 0.0 | 0.0 | 0.03 | 2.36 | 0.00 | 96 | 1017.0 |
| 20260502050507 | 10 | 45 | 0.0 | 0.0 | 0.05 | 2.36 | 0.00 | 96 | 1016.8 |
| 20260502050018 | 10 | 45 | 0.0 | 0.0 | 0.05 | 2.36 | 0.00 | 96 | 1016.8 |
| 20260502045506 | 10 | 46 | 0.0 | 0.0 | 0.05 | 2.41 | 2.36 | 96 | 1016.9 |